STARLINK-32082, 60346

Orbit data source: Space-Track

STARLINK-32082, 60346 is a payload satellite owned by SpaceX/Seattle (US) in LEO that was launched on Fri, 02 Aug 2024 UTC via an FALCON 9 launch vehicle from the Air Force Eastern Test Range (AFETR). Payloads include a variety of satellites, spacecraft, and rockets equipped with specific instruments for various scientific and technological missions. These include communications satellites like Starlink; space stations such as the ISS; scientific satellites like the Hubble; Earth observation satellites from companies like Planet Labs, Umbra, and HawkEye 360; GPS; miniature CubeSats for education and research; and military/defense satellites.

Loading next visibility...
STARLINK-32082 details
Identifier
60346, 2024-136T
Orbit
LEO
Last TLE update17 hours ago
Origin
Flag of USSpaceX/Seattle (US)
ManufacturerSpaceX/Seattle
MissionOperational spacecraft
Bus & MotorSTARLINK V2M, Unknown motor
Mass730 kg wet, ~700 kg dry
Launch date (UTC)
2024-08-02 (5 months ago)
Launch vehicle
FALCON 9
Launch site
Air Force Eastern Test Range (AFETR)
Object type
Payload
Rocket body
Debris
Shape & HBRUnknown
Radar Cross SectionLarge (>1 m²)

Expand to show TLE details & history

TLE from 17 hours ago
0 STARLINK-32082
1 60346U 24136T   25014.80597577 -.00000718  00000-0 -12130-4 0  9994
2 60346  53.1590 221.1873 0001268  99.6824 260.4320 15.30189119 25533
Epoch: 2025-01-14T19:20Z
Definitive object data (Epoch: 2025-01-14T19:20:36.306Z)
Latitude-0.00002°
Longitude176.52861°
Altitude476.292 km
Speed7.629 km/s
True Right ascension14h 44m 44s
True Declination0° 00' 00"
Sunlit
Object was in daylight at TLE epoch
Visualization TLE readout
Latitude-19.59384°
Longitude8.70149°
Altitude480.866 km
Speed7.625 km/s
Apparent Right ascension02h 17m 05s
Apparent Declination-31° 07' 37"
Sunlit
Object is in daylight
Visualization observer readout
Local Sidereal Time12:34:49
Azimuth285.005° WNW
Elevation-67.514°
Doppler factor1
Orbital elements
Apogee altitude476.373 km
Perigee altitude474.635 km
Semi-major axis6,853.641 km
Eccentricity0.0001268
Inclination53.159°
RAAN221.1873°
Arg. of periapsis99.6824°
True anomaly260.41767°
Mean anomaly260.432°
Eccentric anomaly260.42484°
Mean motion3.82526 °/min
BSTAR-0.00001213
Orbital period94.11 mins
Loading maneuver chart data...
Loading historical data...
Loading historical data...
Loading historical data...
Loading historical data...
Loading historical data...
Loading historical data...
Loading historical data...

STARLINK-32082 Visibility forecast

Observer location: undefined°, undefined

Span
Click to sort rows by Start time (UTC) header in descending order
Start Az.
Max El. time (UTC)
Max El. Az.
Max El.
End time (UTC)
End Az.
6 mins2025-01-15 15:53:32.607Z206.32° SW2025-01-15 15:56:32.607Z114.643° SE36.377°2025-01-15 15:59:32.607Z60.557° ENE
4 mins2025-01-15 17:32:32.607Z291.892° WNW2025-01-15 17:34:32.607Z339.91° N22.59°2025-01-15 17:36:32.607Z20.972° NNE
5 mins2025-01-15 22:29:32.607Z337.642° N2025-01-15 22:31:32.607Z52.963° ENE33.842°2025-01-15 22:34:32.607Z107.265° ESE
4 mins2025-01-16 00:07:32.607Z260.961° W2025-01-16 00:08:32.607Z238.902° WSW20.148°2025-01-16 00:11:32.607Z180.857° SSW
|